H1 CPF 2 NER 2023 10 16 9 289 01 glonass143 H2 2007501 9143 46805 2023 10 16 0 0 0 2023 10 19 23 45 0 900 1 1 0 0 0 1 H9 10 0 60233 0.00000 0 20011516.724 -406256.293 15813967.994 10 0 60233 900.00000 0 21747910.389 69770.943 13328087.681 10 0 60233 1800.00000 0 23203539.727 334948.515 10583284.980 10 0 60233 2700.00000 0 24330884.890 425285.656 7632829.645 10 0 60233 3600.00000 0 25092668.697 385012.827 4534018.794 10 0 60233 4500.00000 0 25463372.644 264467.642 1347063.956 10 0 60233 5400.00000 0 25430279.191 117718.911 -1866081.572 10 0 60233 6300.00000 0 24993995.748 29.992 -5042931.876 10 0 60233 7200.00000 0 24168437.668 -34730.169 -8121689.841 10 0 60233 8100.00000 0 22980270.409 63382.372 -11042456.262 10 0 60233 9000.00000 0 21467834.026 338022.773 -13748402.253 10 0 60233 9900.00000 0 19679595.122 824461.754 -16186881.294 10 0 60233 10800.00000 0 17672191.406 1547848.033 -18310458.600 10 0 60233 11700.00000 0 15508151.167 2521903.476 -20077837.373 10 0 60233 12600.00000 0 13253383.588 3748107.211 -21454663.662 10 0 60233 13500.00000 0 10974545.280 5215404.092 -22414194.236 10 0 60233 14400.00000 0 8736393.290 6900450.719 -22937814.720 10 0 60233 15300.00000 0 6599235.168 8768389.471 -23015398.270 10 0 60233 16200.00000 0 4616582.253 10774118.784 -22645498.272 10 0 60233 17100.00000 0 2833103.458 12864007.035 -21835371.726 10 0 60233 18000.00000 0 1282964.117 14977978.805 -20600833.249 10 0 60233 18900.00000 0 -11381.973 17051886.639 -18965942.835 10 0 60233 19800.00000 0 -1039898.258 19020069.520 -16962533.582 10 0 60233 20700.00000 0 -1805140.905 20817991.298 -14629588.750 10 0 60233 21600.00000 0 -2321898.420 22384848.997 -12012480.303 10 0 60233 22500.00000 0 -2616312.189 23666042.103 -9162083.821 10 0 60233 23400.00000 0 -2724516.562 24615399.665 -6133787.118 10 0 60233 24300.00000 0 -2690857.205 25197072.207 -2986412.036 10 0 60233 25200.00000 0 -2565764.160 25387009.496 218929.465 10 0 60233 26100.00000 0 -2403370.456 25173962.582 3420022.353 10 0 60233 27000.00000 0 -2258977.691 24559968.526 6554755.460 10 0 60233 27900.00000 0 -2186476.287 23560297.932 9562324.713 10 0 60233 28800.00000 0 -2235829.800 22202867.900 12384409.234 10 0 60233 29700.00000 0 -2450729.781 20527145.292 14966297.673 10 0 60233 30600.00000 0 -2866520.305 18582586.369 17257943.280 10 0 60233 31500.00000 0 -3508479.817 16426677.991 19214927.771 10 0 60233 32400.00000 0 -4390532.876 14122661.888 20799316.028 10 0 60233 33300.00000 0 -5514446.399 11737036.369 21980385.823 10 0 60233 34200.00000 0 -6869544.783 9336938.790 22735219.186 10 0 60233 35100.00000 0 -8432956.808 6987516.807 23049144.589 10 0 60233 36000.00000 0 -10170385.192 4749396.624 22916021.842 10 0 60233 36900.00000 0 -12037368.029 2676352.474 22338364.293 10 0 60233 37800.00000 0 -13980980.966 813273.124 21327295.831 10 0 60233 38700.00000 0 -15941910.627 -805490.970 19902343.022 10 0 60233 39600.00000 0 -17856814.137 -2157331.830 18091065.642 10 0 60233 40500.00000 0 -19660867.455 -3232089.927 15928531.829 10 0 60233 41400.00000 0 -21290396.916 -4032233.009 13456646.949 10 0 60233 42300.00000 0 -22685484.419 -4572500.680 10723348.227 10 0 60233 43200.00000 0 -23792437.252 -4879030.036 7781679.898 10 0 60233 44100.00000 0 -24566018.747 -4987999.439 4688766.234 10 0 60233 45000.00000 0 -24971345.488 -4943848.020 1504702.131 10 0 60233 45900.00000 0 -24985370.531 -4797146.560 -1708617.103 10 0 60233 46800.00000 0 -24597889.294 -4602210.438 -4888703.628 10 0 60233 47700.00000 0 -23812024.837 -4414556.511 -7973698.453 10 0 60233 48600.00000 0 -22644171.247 -4288312.591 -10903581.710 10 0 60233 49500.00000 0 -21123396.845 -4273690.338 -13621347.427 10 0 60233 50400.00000 0 -19290331.819 -4414629.752 -16074119.053 10 0 60233 51300.00000 0 -17195586.811 -4746716.093 -18214183.384 10 0 60233 52200.00000 0 -14897768.719 -5295458.435 -19999922.296 10 0 60233 53100.00000 0 -12461176.967 -6075003.562 -21396623.949 10 0 60233 54000.00000 0 -9953276.731 -7087340.376 -22377157.700 10 0 60233 54900.00000 0 -7442054.772 -8322029.085 -22922499.863 10 0 60233 55800.00000 0 -4993368.209 -9756467.260 -23022100.421 10 0 60233 56700.00000 0 -2668396.505 -11356682.109 -22674084.016 10 0 60233 57600.00000 0 -521302.339 -13078616.204 -21885281.738 10 0 60233 58500.00000 0 1402801.899 -14869853.117 -20671093.446 10 0 60233 59400.00000 0 3069498.314 -16671710.960 -19055183.611 10 0 60233 60300.00000 0 4456251.142 -18421616.352 -17069016.750 10 0 60233 61200.00000 0 5553089.709 -20055659.548 -14751241.641 10 0 60233 62100.00000 0 6362759.859 -21511223.782 -12146936.338 10 0 60233 63000.00000 0 6900339.234 -22729578.732 -9306728.771 10 0 60233 63900.00000 0 7192334.313 -23658329.440 -6285810.126 10 0 60233 64800.00000 0 7275298.830 -24253618.012 -3142860.394 10 0 60233 65700.00000 0 7194033.266 -24481985.886 61092.862 10 0 60233 66600.00000 0 6999442.603 -24321818.580 3263860.019 10 0 60233 67500.00000 0 6746143.829 -23764312.537 6403295.940 10 0 60233 68400.00000 0 6489924.981 -22813923.643 9418503.985 10 0 60233 69300.00000 0 6285163.559 -21488278.830 12251014.020 10 0 60233 70200.00000 0 6182313.628 -19817554.563 14845911.728 10 0 60233 71100.00000 0 6225567.760 -17843348.184 17152897.689 10 0 60233 72000.00000 0 6450792.434 -15617089.154 19127256.168 10 0 60233 72900.00000 0 6883823.908 -13198056.087 20730715.558 10 0 60233 73800.00000 0 7539196.344 -10651081.608 21932184.579 10 0 60233 74700.00000 0 8419355.976 -8044039.774 22708350.688 10 0 60233 75600.00000 0 9514394.828 -5445219.529 23044129.799 10 0 60233 76500.00000 0 10802316.000 -2920692.136 22932959.024 10 0 60233 77400.00000 0 12249820.488 -531780.825 22376926.933 10 0 60233 78300.00000 0 13813583.908 1667263.512 21386738.663 10 0 60233 79200.00000 0 15441971.128 3631285.030 19981516.069 10 0 60233 80100.00000 0 17077118.435 5325860.891 18188436.051 10 0 60233 81000.00000 0 18657297.397 6728487.047 16042213.116 10 0 60233 81900.00000 0 20119462.411 7829263.001 13584435.135 10 0 60233 82800.00000 0 21401875.827 8631047.406 10862764.222 10 0 60233 83700.00000 0 22446700.789 9149078.405 7930017.344 10 0 60233 84600.00000 0 23202452.726 9410075.003 4843143.905 10 0 60233 85500.00000 0 23626205.910 9450857.696 1662119.895 10 0 60234 0.00000 0 23685461.402 9316547.032 -1551219.556 10 0 60234 900.00000 0 23359596.656 9058416.659 -4734387.911 10 0 60234 1800.00000 0 22640834.607 8731492.667 -7825466.730 10 0 60234 2700.00000 0 21534690.396 8392001.399 -10764318.188 10 0 60234 3600.00000 0 20059875.791 8094774.971 -13493761.844 10 0 60234 4500.00000 0 18247664.570 7890725.307 -15960693.590 10 0 60234 5400.00000 0 16140744.932 7824494.646 -18117124.083 10 0 60234 6300.00000 0 13791606.660 7932382.852 -19921115.974 10 0 60234 7200.00000 0 11260530.428 8240639.970 -21337601.434 10 0 60234 8100.00000 0 8613263.230 8764196.839 -22339064.124 10 0 60234 9000.00000 0 5918476.950 9505887.861 -22906072.549 10 0 60234 9900.00000 0 3245115.983 10456199.116 -23027654.766 10 0 60234 10800.00000 0 659744.188 11593552.768 -22701507.625 10 0 60234 11700.00000 0 -1775998.811 12885116.046 -21934036.873 10 0 60234 12600.00000 0 -4007726.683 14288101.020 -20740227.749 10 0 60234 13500.00000 0 -5990324.790 15751500.692 -19143348.863 10 0 60234 14400.00000 0 -7689574.972 17218188.657 -17174495.321 10 0 60234 15300.00000 0 -9083320.319 18627294.207 -14871980.101 10 0 60234 16200.00000 0 -10162122.875 19916753.199 -12280585.594 10 0 60234 17100.00000 0 -10929388.431 21025927.534 -9450689.920 10 0 60234 18000.00000 0 -11400954.922 21898183.181 -6437285.148 10 0 60234 18900.00000 0 -11604163.431 22483318.337 -3298906.655 10 0 60234 19800.00000 0 -11576452.483 22739739.667 -96494.641 10 0 60234 20700.00000 0 -11363536.265 22636295.072 3107789.782 10 0 60234 21600.00000 0 -11017244.801 22153685.999 6251770.689 10 0 60234 22500.00000 0 -10593118.146 21285399.938 9274462.072 10 0 60234 23400.00000 0 -10147856.784 20038123.941 12117247.693 10 0 60234 24300.00000 0 -9736736.224 18431621.758 14725013.331 10 0 60234 25200.00000 0 -9411094.977 16498079.519 17047209.811 10 0 60234 26100.00000 0 -9216001.780 14280946.997 19038826.666 10 0 60234 27000.00000 0 -9188200.180 11833322.305 20661258.287 10 0 60234 27900.00000 0 -9354416.810 9215946.605 21883046.529 10 0 60234 28800.00000 0 -9730104.439 6494891.368 22680486.135 10 0 60234 29700.00000 0 -10318672.714 3739033.253 23038081.925 10 0 60234 30600.00000 0 -11111239.260 1017420.181 22948849.336 10 0 60234 31500.00000 0 -12086912.234 -1603363.290 22414452.686 10 0 60234 32400.00000 0 -13213593.400 -4061723.233 21445178.346 10 0 60234 33300.00000 0 -14449269.187 -6303372.538 20059742.885 10 0 60234 34200.00000 0 -15743736.809 -8283340.791 18284939.166 10 0 60234 35100.00000 0 -17040694.243 -9967595.088 16155126.340 10 0 60234 36000.00000 0 -18280107.424 -11334204.947 13711572.546 10 0 60234 36900.00000 0 -19400755.979 -12374003.157 11001662.085 10 0 60234 37800.00000 0 -20342850.926 -13090715.335 8077981.584 10 0 60234 38700.00000 0 -21050614.215 -13500553.072 4997302.225 10 0 60234 39600.00000 0 -21474711.061 -13631288.107 1819477.552 10 0 60234 40500.00000 0 -21574431.829 -13520846.907 -1393721.715 10 0 60234 41400.00000 0 -21319530.433 -13215485.458 -4579812.853 10 0 60234 42300.00000 0 -20691640.495 -12767621.997 -7676822.192 10 0 60234 43200.00000 0 -19685208.270 -12233420.093 -10624497.499 10 0 60234 44100.00000 0 -18307901.784 -11670225.214 -13365487.236 10 0 60234 45000.00000 0 -16580477.833 -11133964.165 -15846462.869 10 0 60234 45900.00000 0 -14536111.492 -10676618.318 -18019161.707 10 0 60234 46800.00000 0 -12219215.567 -10343878.350 -19841329.517 10 0 60234 47700.00000 0 -9683798.912 -10173080.253 -21277544.300 10 0 60234 48600.00000 0 -6991431.966 -10191510.358 -22299905.221 10 0 60234 49500.00000 0 -4208904.160 -10415151.201 -22888573.532 10 0 60234 50400.00000 0 -1405670.706 -10847921.321 -23032155.284 10 0 60234 51300.00000 0 1348805.184 -11481441.075 -22727918.843 10 0 60234 52200.00000 0 3987704.422 -12295334.294 -21981843.399 10 0 60234 53100.00000 0 6449388.700 -13258052.997 -20808497.902 10 0 60234 54000.00000 0 8679716.887 -14328190.354 -19230753.070 10 0 60234 54900.00000 0 10634045.709 -15456226.556 -17279332.258 10 0 60234 55800.00000 0 12278832.502 -16586633.983 -14992210.059 10 0 60234 56700.00000 0 13592774.540 -17660253.017 -12413870.402 10 0 60234 57600.00000 0 14567438.874 -18616838.343 -9594438.639 10 0 60234 58500.00000 0 15207357.910 -19397668.440 -6588704.639 10 0 60234 59400.00000 0 15529588.406 -19948108.221 -3455056.024 10 0 60234 60300.00000 0 15562754.022 -20220016.795 -254342.495 10 0 60234 61200.00000 0 15345613.191 -20173898.815 2951306.393 10 0 60234 62100.00000 0 14925213.944 -19780708.731 6099686.812 10 0 60234 63000.00000 0 14354714.528 -19023231.905 9129726.028 10 0 60234 63900.00000 0 13690962.473 -17896984.358 11982664.043 10 0 60234 64800.00000 0 12991934.692 -16410593.139 14603188.742 10 0 60234 65700.00000 0 12314146.690 -14585641.040 16940502.846 10 0 60234 66600.00000 0 11710139.980 -12455981.651 18949302.444 10 0 60234 67500.00000 0 11226153.240 -10066552.735 20590648.857 10 0 60234 68400.00000 0 10900074.810 -7471736.525 21832717.670 10 0 60234 69300.00000 0 10759762.227 -4733334.203 22651411.195 10 0 60234 70200.00000 0 10821799.151 -1918237.557 23030823.143 10 0 60234 71100.00000 0 11090741.744 904106.834 22963547.007 10 0 60234 72000.00000 0 11558886.325 3664336.987 22450822.349 10 0 60234 72900.00000 0 12206568.495 6295810.352 21502516.069 10 0 60234 73800.00000 0 13002981.847 8737126.030 20136938.551 10 0 60234 74700.00000 0 13907482.805 10934430.706 18380497.568 10 0 60234 75600.00000 0 14871327.724 12843413.373 16267195.696 10 0 60234 76500.00000 0 15839770.203 14430906.470 13837979.942 10 0 60234 77400.00000 0 16754431.132 15676027.144 11139955.218 10 0 60234 78300.00000 0 17555842.183 16570811.266 8225476.029 10 0 60234 79200.00000 0 18186055.700 17120313.892 5151133.350 10 0 60234 80100.00000 0 18591210.666 17342172.165 1976656.096 10 0 60234 81000.00000 0 18723945.822 17265649.294 -1236251.481 10 0 60234 81900.00000 0 18545557.087 16930200.267 -4425113.516 10 0 60234 82800.00000 0 18027806.991 16383620.287 -7527903.332 10 0 60234 83700.00000 0 17154308.362 15679854.788 -10484256.773 10 0 60234 84600.00000 0 15921422.511 14876564.294 -13236653.608 10 0 60234 85500.00000 0 14338632.709 14032547.902 -15731543.148 10 0 60235 0.00000 0 12428376.221 13205135.169 -17920391.291 10 0 60235 900.00000 0 10225339.814 12447656.901 -19760629.282 10 0 60235 1800.00000 0 7775250.098 11807103.359 -21216482.540 10 0 60235 2700.00000 0 5133205.284 11322067.654 -22259667.386 10 0 60235 3600.00000 0 2361620.049 11021062.353 -22869939.290 10 0 60235 4500.00000 0 -472132.107 10921279.810 -23035483.550 10 0 60235 5400.00000 0 -3298280.994 11027848.303 -22753141.018 10 0 60235 6300.00000 0 -6047320.101 11333614.980 -22028464.940 10 0 60235 7200.00000 0 -8652654.998 11819464.305 -20875608.165 10 0 60235 8100.00000 0 -11053130.220 12455158.178 -19317043.235 10 0 60235 9000.00000 0 -13195330.261 13200661.880 -17383120.998 10 0 60235 9900.00000 0 -15035559.792 14007899.586 -15111476.449 10 0 60235 10800.00000 0 -16541421.684 14822865.111 -12546293.442 10 0 60235 11700.00000 0 -17692928.235 15587998.591 -9737442.622 10 0 60235 12600.00000 0 -18483100.531 16244728.580 -6739509.448 10 0 60235 13500.00000 0 -18918032.356 16736072.101 -3610731.385 10 0 60235 14400.00000 0 -19016417.446 17009182.715 -411865.076 10 0 60235 15300.00000 0 -18808561.420 17017738.927 2794994.158 10 0 60235 16200.00000 0 -18334921.280 16724071.985 5947617.352 10 0 60235 17100.00000 0 -17644235.078 16100943.213 8984847.883 10 0 60235 18000.00000 0 -16791321.401 15132895.781 11847784.878 10 0 60235 18900.00000 0 -15834641.958 13817123.766 14480921.212 10 0 60235 19800.00000 0 -14833730.139 12163821.579 16833214.338 10 0 60235 20700.00000 0 -13846593.783 10195998.559 18859069.638 10 0 60235 21600.00000 0 -12927201.095 7948765.735 20519217.932 10 0 60235 22500.00000 0 -12123154.872 5468123.566 21781470.878 10 0 60235 23400.00000 0 -11473652.201 2809300.075 22621340.405 10 0 60235 24300.00000 0 -11007814.617 34707.186 23022510.833 10 0 60235 25200.00000 0 -10743458.355 -2788401.225 22977155.030 10 0 60235 26100.00000 0 -10686355.961 -5590473.824 22486088.699 10 0 60235 27000.00000 0 -10830020.191 -8302304.706 21558759.691 10 0 60235 27900.00000 0 -11156019.470 -10857666.389 20213072.148 10 0 60235 28800.00000 0 -11634812.124 -13195824.715 18475048.178 10 0 60235 29700.00000 0 -12227064.914 -15263832.129 16378332.701 10 0 60235 30600.00000 0 -12885401.130 -17018504.610 13963550.032 10 0 60235 31500.00000 0 -13556505.255 -18428000.261 11277523.686 10 0 60235 32400.00000 0 -14183495.962 -19472933.922 8372373.640 10 0 60235 33300.00000 0 -14708467.547 -20146981.270 5304507.930 10 0 60235 34200.00000 0 -15075092.319 -20456947.120 2133527.831 10 0 60235 35100.00000 0 -15231173.495 -20422295.119 -1078932.093 10 0 60235 36000.00000 0 -15131039.840 -20074158.797 -4270406.224 10 0 60235 36900.00000 0 -14737679.678 -19453875.933 -7378818.384 10 0 60235 37800.00000 0 -14024522.740 -18611108.496 -10343696.060 10 0 60235 38700.00000 0 -12976793.131 -17601628.115 -13107353.885 10 0 60235 39600.00000 0 -11592374.888 -16484861.260 -15616022.473 10 0 60235 40500.00000 0 -9882152.233 -15321298.482 -17820899.928 10 0 60235 41400.00000 0 -7869808.990 -14169877.715 -19679105.104 10 0 60235 42300.00000 0 -5591094.466 -13085452.549 -21154513.755 10 0 60235 43200.00000 0 -3092585.697 -12116452.555 -22218461.316 10 0 60235 44100.00000 0 -429997.082 -11302834.304 -22850298.840 10 0 60235 45000.00000 0 2333892.601 -10674409.224 -23037791.610 10 0 60235 45900.00000 0 5131609.828 -10249618.265 -22777353.110 10 0 60235 46800.00000 0 7893554.420 -10034804.365 -22074110.227 10 0 60235 47700.00000 0 10550659.631 -10024012.592 -20941798.790 10 0 60235 48600.00000 0 13037034.056 -10199325.583 -19402491.804 10 0 60235 49500.00000 0 15292476.066 -10531719.360 -17486165.836 10 0 60235 50400.00000 0 17264756.728 -10982402.662 -15230114.127 10 0 60235 51300.00000 0 18911576.959 -11504582.651 -12678217.938 10 0 60235 52200.00000 0 20202118.251 -12045581.890 -9880090.339 10 0 60235 53100.00000 0 21118123.276 -12549216.692 -6890109.223 10 0 60235 54000.00000 0 21654462.415 -12958335.973 -3766358.501 10 0 60235 54900.00000 0 21819163.772 -13217413.009 -569498.236 10 0 60235 55800.00000 0 21632906.729 -13275080.292 2638414.029 10 0 60235 56700.00000 0 21128001.562 -13086500.169 5795127.628 10 0 60235 57600.00000 0 20346899.149 -12615470.961 8839405.256 10 0 60235 58500.00000 0 19340294.331 -11836179.447 11712208.048 10 0 60235 59400.00000 0 18164903.393 -10734525.611 14357836.361 10 0 60235 60300.00000 0 16881009.422 -9308963.456 16725004.448 10 0 60235 61200.00000 0 15549878.805 -7570822.031 18767828.628 10 0 60235 62100.00000 0 14231157.075 -5544092.454 20446710.441 10 0 60235 63000.00000 0 12980352.923 -3264688.817 21729098.468 10 0 60235 63900.00000 0 11846515.201 -779212.690 22590114.747 10 0 60235 64800.00000 0 10870199.520 1856728.710 23013034.377 10 0 60235 65700.00000 0 10081808.856 4580582.209 22989609.477 10 0 60235 66600.00000 0 9500377.043 7325202.203 22520231.477 10 0 60235 67500.00000 0 9132845.624 10021401.816 21613928.518 10 0 60235 68400.00000 0 8973864.127 12600597.254 20288197.589 10 0 60235 69300.00000 0 9006122.126 14997436.727 18568673.997 10 0 60235 70200.00000 0 9201199.343 17152305.711 16488643.665 10 0 60235 71100.00000 0 9520898.373 19013605.025 14088406.663 10 0 60235 72000.00000 0 9919004.296 20539707.189 11414503.344 10 0 60235 72900.00000 0 10343397.348 21700509.580 8518817.198 10 0 60235 73800.00000 0 10738429.612 22478519.421 5457571.147 10 0 60235 74700.00000 0 11047465.206 22869424.990 2290236.478 10 0 60235 75600.00000 0 11215476.174 22882128.921 -921624.436 10 0 60235 76500.00000 0 11191583.493 22538242.123 -4115558.811 10 0 60235 77400.00000 0 10931434.672 21871059.650 -7229443.575 10 0 60235 78300.00000 0 10399316.070 20924061.863 -10202700.416 10 0 60235 79200.00000 0 9569909.218 19749004.466 -12977481.279 10 0 60235 80100.00000 0 8429615.432 18403678.422 -15499800.374 10 0 60235 81000.00000 0 6977391.402 16949434.811 -17720589.955 10 0 60235 81900.00000 0 5225059.111 15448579.473 -19596658.829 10 0 60235 82800.00000 0 3197075.859 13961747.710 -21091534.645 10 0 60235 83700.00000 0 929772.931 12545369.824 -22176173.541 10 0 60235 84600.00000 0 -1529906.129 11249334.198 -22829523.548 10 0 60235 85500.00000 0 -4126115.611 10114945.972 -23038931.090 10 0 60236 0.00000 0 -6796195.090 9173266.676 -22800383.171 10 0 60236 900.00000 0 -9473049.183 8443903.410 -22118580.743 10 0 60236 1800.00000 0 -12087717.357 7934298.706 -21006842.665 10 0 60236 2700.00000 0 -14572031.971 7639548.192 -19486841.980 10 0 60236 3600.00000 0 -16861250.843 7542753.874 -17588180.085 10 0 60236 4500.00000 0 -18896556.593 7615896.505 -15347807.157 10 0 60236 5400.00000 0 -20627318.994 7821189.306 -12809300.192 10 0 60236 6300.00000 0 -22013026.654 8112854.962 -10022012.734 10 0 60236 7200.00000 0 -23024808.136 8439250.060 -7040112.953 10 0 60236 8100.00000 0 -23646479.858 8745246.520 -3921528.901 10 0 60236 9000.00000 0 -23875077.912 8974768.766 -726821.643 10 0 60236 9900.00000 0 -23720852.555 9073378.947 2481991.565 10 0 60236 10800.00000 0 -23206726.703 8990800.509 5642640.943 10 0 60236 11700.00000 0 -22367242.159 8683273.204 8693811.175 10 0 60236 12600.00000 0 -21247038.704 8115639.786 11576328.122 10 0 60236 13500.00000 0 -19898930.602 7263076.088 14234302.364 10 0 60236 14400.00000 0 -18381661.678 6112391.210 16616207.664 10 0 60236 15300.00000 0 -16757433.290 4662842.634 18675873.874 10 0 60236 16200.00000 0 -15089308.658 2926431.362 20373375.690 10 0 60236 17100.00000 0 -13438601.827 927663.786 21675800.803 10 0 60236 18000.00000 0 -11862359.877 -1297210.886 22557883.256 10 0 60236 18900.00000 0 -10411042.846 -3701457.171 23002490.477 10 0 60236 19800.00000 0 -9126497.460 -6229553.015 23000955.027 10 0 60236 20700.00000 0 -8040308.488 -8819263.486 22553244.881 10 0 60236 21600.00000 0 -7172595.884 -11404003.911 21667968.884 10 0 60236 22500.00000 0 -6531307.395 -13915395.734 20362216.897 10 0 60236 23400.00000 0 -6112035.881 -16285910.197 18661237.049 10 0 60236 24300.00000 0 -5898368.775 -18451490.979 16597955.477 10 0 60236 25200.00000 0 -5862754.983 -20354047.393 14212346.820 10 0 60236 26100.00000 0 -5967852.848 -21943714.619 11550666.714 10 0 60236 27000.00000 0 -6168302.465 -23180786.777 8664560.249 10 0 60236 27900.00000 0 -6412847.639 -24037241.855 5610063.024 10 0 60236 28800.00000 0 -6646717.653 -24497794.305 2446513.850 10 0 60236 29700.00000 0 -6814167.784 -24560430.787 -764599.800 10 0 60236 30600.00000 0 -6861070.357 -24236406.144 -3960840.899 10 0 60236 31500.00000 0 -6737445.748 -23549699.560 -7080042.586 10 0 60236 32400.00000 0 -6399824.996 -22535953.682 -10061523.997 10 0 60236 33300.00000 0 -5813342.722 -21240941.474 -12847277.729 10 0 60236 34200.00000 0 -4953470.392 -19718625.642 -15383104.943 10 0 60236 35100.00000 0 -3807315.270 -18028892.752 -17619675.306 10 0 60236 36000.00000 0 -2374428.857 -16235057.839 -19513490.645 10 0 60236 36900.00000 0 -667089.448 -14401244.870 -21027733.246 10 0 60236 37800.00000 0 1289954.217 -12589753.469 -22132982.283 10 0 60236 38700.00000 0 3460268.499 -10858522.504 -22807784.591 10 0 60236 39600.00000 0 5797017.560 -9258796.853 -23039069.038 10 0 60236 40500.00000 0 8244690.287 -7833094.710 -22822396.824 10 0 60236 41400.00000 0 10741199.977 -6613559.899 -22162043.311 10 0 60236 42300.00000 0 13220269.618 -5620767.315 -21070910.137 10 0 60236 43200.00000 0 15614003.800 -4863030.349 -19570269.687 10 0 60236 44100.00000 0 17855540.430 -4336238.045 -17689347.041 10 0 60236 45000.00000 0 19881672.071 -4024227.394 -15464747.721 10 0 60236 45900.00000 0 21635327.976 -3899673.736 -12939742.418 10 0 60236 46800.00000 0 23067813.700 -3925460.411 -10163422.671 10 0 60236 47700.00000 0 24140715.215 -4056468.718 -7189744.033 10 0 60236 48600.00000 0 24827388.554 -4241711.598 -4076475.469 10 0 60236 49500.00000 0 25113973.320 -4426719.990 -884075.571 10 0 60236 50400.00000 0 24999888.379 -4556080.328 2325482.284 10 0 60236 51300.00000 0 24497789.791 -4576015.306 5489912.786 10 0 60236 52200.00000 0 23632993.526 -4436898.411 8547826.033 10 0 60236 53100.00000 0 22442387.938 -4095595.649 11439915.793 10 0 60236 54000.00000 0 20972882.191 -3517535.283 14110105.710 10 0 60236 54900.00000 0 19279456.073 -2678418.013 16506631.519 10 0 60236 55800.00000 0 17422893.035 -1565495.177 18583038.676 10 0 60236 56700.00000 0 15467291.228 -178360.675 20299076.723 10 0 60236 57600.00000 0 13477456.168 1470777.364 21621473.774 10 0 60236 58500.00000 0 11516283.360 3357357.540 22524576.843 10 0 60236 59400.00000 0 9642239.242 5445249.096 22990846.323 10 0 60236 60300.00000 0 7907044.613 7688027.497 23011195.508 10 0 60236 61200.00000 0 6353656.151 10030690.063 22585168.870 10 0 60236 62100.00000 0 5014629.272 12411741.839 21720955.581 10 0 60236 63000.00000 0 3910929.779 14765566.465 20435237.654 10 0 60236 63900.00000 0 3051243.296 17024984.770 18752875.004 10 0 60236 64800.00000 0 2431810.818 19123895.727 16706432.645 10 0 60236 65700.00000 0 2036796.943 20999890.603 14335558.179 10 0 60236 66600.00000 0 1839175.091 22596731.676 11686220.660 10 0 60236 67500.00000 0 1802092.358 23866592.161 8809824.678 10 0 60236 68400.00000 0 1880656.291 24771963.491 5762216.193 10 0 60236 69300.00000 0 2024068.003 25287149.538 2602599.049 10 0 60236 70200.00000 0 2178010.968 25399284.508 -607616.826 10 0 60236 71100.00000 0 2287193.852 25108831.123 -3806012.907 10 0 60236 72000.00000 0 2297938.892 24429537.684 -6930381.297 10 0 60236 72900.00000 0 2160705.134 23387855.310 -9919941.289 10 0 60236 73800.00000 0 1832438.464 22021839.668 -12716528.730 10 0 60236 74700.00000 0 1278647.655 20379583.363 -15265734.168 10 0 60236 75600.00000 0 475117.273 18517245.100 -17517966.934 10 0 60236 76500.00000 0 -590816.260 16496758.672 -19429423.927 10 0 60236 77400.00000 0 -1919480.504 14383318.322 -20962943.933 10 0 60236 78300.00000 0 -3498608.932 12242746.235 -22088730.803 10 0 60236 79200.00000 0 -5303620.837 10138852.571 -22784931.608 10 0 60236 80100.00000 0 -7298428.321 8130898.542 -23038058.811 10 0 60236 81000.00000 0 -9436737.338 6271268.300 -22843248.688 10 0 60236 81900.00000 0 -11663788.963 4603446.363 -22204351.409 10 0 60236 82800.00000 0 -13918468.607 3160384.255 -21133851.413 10 0 60236 83700.00000 0 -16135695.518 1963323.478 -19652619.963 10 0 60236 84600.00000 0 -18248993.146 1021122.678 -17789504.911 10 0 60236 85500.00000 0 -20193133.341 330115.676 -15580765.776 99